DEBRISSAT-2 (43680 NORAD) Tracking and Keplerian Element Data

This shows tracking and keplerian element data for the satellite.

Feedback or suggestion? Click here.




ElementValue
Catalog43680
NameDEBRISSAT-2
Epoch Orbit5261
Epoch Day144.20229158
Epoch Year2019
RAAN111.3072
Inclination51.6375
Eccentricity0.0005482
Argument of Perigee49.2543
Mean Anonmoly310.8924
Mean Motion15.62249778
Decay Rate0.00014115
L11 43680U 98067PR 19144.20229158 .00014115 00000-0 16259-3 0 9997
L22 43680 51.6375 111.3072 0005482 49.2543 310.8924 15.62249778 52613

Live tracking and technical data element details for DEBRISSAT-2 (NORAD 43680). DEBRISSAT-2 can be tracked NOW for your location showing map with azimuth and elevation plus other details from your city location.

Track the satellite on the map from your city or location and see movement details for azimuth, elevation, latitude, longitude, range, height, and movement on the map or in text.







IsCatalogInMostPopularTable: catalog: 43680, numindb: 131
Update: records affected: 1



GetName: 43680 DEBRISSAT-2

Hit Count: updated at: Fri, 24 May 2019 21:15:41 GMT